Location: Griffin Ranch
(33.6186°N, 110.6622°W)
Time: 18:18:34
(UTC-07:00)

Cosmos 1812 - Visible Passes

Search period start: 29 June 2016 00:00
Search period end: 09 July 2016 00:00
Orbit: 523 x 526 km, 82.5° (Epoch: 28 June)

Date Brightness Start Highest point End Pass type
(mag) Time Alt. Az. Time Alt. Az. Time Alt. Az.
29 Jun 5.7 01:11:35 10° NE 01:12:16 11° ENE 01:12:16 11° ENE visible
29 Jun 4.5 02:45:40 10° NNW 02:47:27 22° NW 02:47:27 22° NW visible
30 Jun 4.6 02:33:19 10° NNW 02:34:58 22° NW 02:34:58 22° NW visible
01 Jul 4.8 02:21:00 10° NNW 02:22:33 22° NNW 02:22:33 22° NNW visible
02 Jul 4.9 02:08:41 10° NNW 02:10:07 21° NNW 02:10:07 21° NNW visible
03 Jul 5.0 01:56:24 10° NNW 01:57:44 20° NNW 01:57:44 20° NNW visible
04 Jul 5.2 01:44:07 10° NNW 01:45:21 19° NNW 01:45:21 19° NNW visible
05 Jul 5.3 01:31:50 10° N 01:32:59 19° N 01:32:59 19° N visible
06 Jul 5.4 01:19:34 10° N 01:20:38 18° N 01:20:38 18° N visible
07 Jul 5.5 01:07:19 10° N 01:08:18 17° N 01:08:18 17° N visible
08 Jul 5.6 00:55:05 10° N 00:55:59 16° N 00:55:59 16° N visible
